Location: *
(53.9002°N, 27.5624°E)
Time: 08:44:09
(UTC+00:00)

Cosmos 2219 - Pass Details

Date: 12 November 2019
Orbit: 835 x 858 km, 71.1° (Epoch: 07 December)

Event Time Altitude Azimuth Distance (km) Brightness Sun altitude
Rises 15:30:33 0° 327° (NNW) 3,401 6.6 -10.9°
Reaches altitude 10° 15:33:00 10° 328° (NNW) 2,461 5.8 -11.2°
Maximum altitude 15:38:40 86° 56° (ENE) 846 3.2 -12.1°
Drops below altitude 10° 15:44:17 10° 148° (SSE) 2,445 5.4 -12.9°
Sets 15:46:43 0° 148° (SSE) 3,376 6.1 -13.2°
